Hourly Weather Cehok

Today, 23 June, Wednesday

Time Temperature Precipitation Wind Pressure Humidity
00:00 +16°C° 0 mm 2 mps 632 mmHg 41%
01:00 +16°C° 0 mm 2 mps 632 mmHg 41%
02:00 +16°C° 0 mm 2 mps 632 mmHg 41%
03:00 +16°C° 0 mm 2 mps 632 mmHg 41%
04:00 +17°C° 0 mm 2 mps 633 mmHg 43%
05:00 +18°C° 0 mm 2 mps 633 mmHg 46%
06:00 +19°C° 0 mm 2 mps 633 mmHg 49%
07:00 +23°C° 0 mm 2 mps 634 mmHg 42%
08:00 +25°C° 0 mm 2 mps 634 mmHg 34%
09:00 +27°C° 0 mm 2 mps 635 mmHg 27%
10:00 +28°C° 0 mm 2 mps 635 mmHg 26%
11:00 +28°C° 0 mm 3 mps 635 mmHg 25%
12:00 +29°C° 0 mm 3 mps 635 mmHg 25%
13:00 +29°C° 0 mm 3 mps 635 mmHg 25%
14:00 +29°C° 0 mm 3 mps 635 mmHg 25%
15:00 +29°C° 0 mm 2 mps 635 mmHg 26%
16:00 +28°C° 0 mm 2 mps 635 mmHg 32%
17:00 +27°C° 0 mm 2 mps 635 mmHg 38%
18:00 +26°C° 0 mm 1 mps 634 mmHg 44%
19:00 +23°C° 0 mm 2 mps 634 mmHg 45%
20:00 +20°C° 0 mm 2 mps 634 mmHg 45%
21:00 +18°C° 0 mm 2 mps 633 mmHg 45%
22:00 +17°C° 0 mm 2 mps 633 mmHg 44%
23:00 +17°C° 0 mm 2 mps 633 mmHg 44%

Tomorrow, 24 June, Thursday

Time Temperature Precipitation Wind Pressure Humidity
00:00 +17°C° 0 mm 2 mps 633 mmHg 43%
01:00 +16°C° 0 mm 2 mps 633 mmHg 44%
02:00 +16°C° 0 mm 2 mps 632 mmHg 44%
03:00 +16°C° 0 mm 2 mps 632 mmHg 45%
04:00 +17°C° 0 mm 2 mps 633 mmHg 45%
05:00 +18°C° 0 mm 2 mps 633 mmHg 45%
06:00 +19°C° 0 mm 2 mps 633 mmHg 45%
07:00 +23°C° 0 mm 2 mps 634 mmHg 39%
08:00 +25°C° 0 mm 2 mps 634 mmHg 33%
09:00 +27°C° 0 mm 2 mps 635 mmHg 26%
10:00 +28°C° 0 mm 2 mps 635 mmHg 26%
11:00 +29°C° 0 mm 3 mps 635 mmHg 26%
12:00 +30°C° 0 mm 3 mps 635 mmHg 25%
13:00 +29°C° 0 mm 3 mps 635 mmHg 26%
14:00 +29°C° 0 mm 3 mps 635 mmHg 26%
15:00 +29°C° 0 mm 2 mps 635 mmHg 26%
16:00 +28°C° 0 mm 2 mps 635 mmHg 33%
17:00 +27°C° 0 mm 2 mps 634 mmHg 39%
18:00 +26°C° 0 mm 1 mps 634 mmHg 45%
19:00 +24°C° 0 mm 1 mps 634 mmHg 45%
20:00 +21°C° 0 mm 1 mps 634 mmHg 44%
21:00 +18°C° 0 mm 2 mps 633 mmHg 44%
22:00 +18°C° 0 mm 2 mps 633 mmHg 42%
23:00 +18°C° 0 mm 2 mps 633 mmHg 40%

Day after tomorrow, 25 June, Friday

Time Temperature Precipitation Wind Pressure Humidity
00:00 +18°C° 0 mm 2 mps 633 mmHg 38%
01:00 +18°C° 0 mm 2 mps 633 mmHg 38%
02:00 +18°C° 0 mm 2 mps 632 mmHg 38%
03:00 +17°C° 0 mm 2 mps 632 mmHg 38%
04:00 +18°C° 0 mm 2 mps 632 mmHg 40%
05:00 +19°C° 0 mm 2 mps 633 mmHg 41%
06:00 +20°C° 0 mm 2 mps 633 mmHg 43%
07:00 +23°C° 0 mm 2 mps 633 mmHg 37%
08:00 +26°C° 0 mm 2 mps 633 mmHg 32%
09:00 +28°C° 0 mm 2 mps 634 mmHg 26%
10:00 +28°C° 0 mm 2 mps 634 mmHg 25%
11:00 +29°C° 0 mm 2 mps 634 mmHg 24%
12:00 +30°C° 0 mm 3 mps 634 mmHg 23%
13:00 +30°C° 0 mm 3 mps 634 mmHg 23%
14:00 +30°C° 0 mm 2 mps 634 mmHg 24%
15:00 +29°C° 0 mm 2 mps 634 mmHg 24%
16:00 +28°C° 0 mm 2 mps 633 mmHg 30%
17:00 +27°C° 0 mm 2 mps 633 mmHg 36%
18:00 +26°C° 0 mm 1 mps 633 mmHg 42%
19:00 +24°C° 0 mm 1 mps 633 mmHg 43%
20:00 +22°C° 0 mm 1 mps 632 mmHg 43%
21:00 +18°C° 0 mm 2 mps 632 mmHg 43%
22:00 +18°C° 0 mm 2 mps 632 mmHg 42%
23:00 +18°C° 0 mm 2 mps 632 mmHg 41%

26 June, Saturday

Time Temperature Precipitation Wind Pressure Humidity
00:00 +18°C° 0 mm 2 mps 632 mmHg 40%
01:00 +18°C° 0 mm 2 mps 631 mmHg 40%
02:00 +18°C° 0 mm 2 mps 631 mmHg 41%
03:00 +17°C° 0 mm 2 mps 631 mmHg 41%
04:00 +18°C° 0 mm 2 mps 631 mmHg 44%
05:00 +19°C° 0 mm 2 mps 631 mmHg 46%
06:00 +20°C° 0 mm 2 mps 632 mmHg 49%
07:00 +23°C° 0 mm 2 mps 632 mmHg 42%
08:00 +25°C° 0 mm 2 mps 632 mmHg 36%
09:00 +27°C° 0 mm 2 mps 633 mmHg 29%
10:00 +28°C° 0 mm 2 mps 633 mmHg 28%
11:00 +29°C° 0 mm 2 mps 633 mmHg 27%
12:00 +29°C° 0 mm 3 mps 633 mmHg 26%
13:00 +29°C° 0 mm 2 mps 633 mmHg 27%
14:00 +29°C° 0 mm 2 mps 633 mmHg 27%
15:00 +28°C° 0 mm 2 mps 633 mmHg 27%
16:00 +28°C° 0 mm 2 mps 632 mmHg 33%
17:00 +27°C° 0 mm 2 mps 632 mmHg 39%
18:00 +26°C° 0 mm 2 mps 632 mmHg 45%
19:00 +24°C° 0 mm 2 mps 632 mmHg 47%
20:00 +21°C° 0 mm 2 mps 632 mmHg 50%
21:00 +19°C° 0 mm 2 mps 632 mmHg 52%
22:00 +19°C° 0 mm 2 mps 632 mmHg 53%
23:00 +18°C° 0 mm 2 mps 632 mmHg 54%

27 June, Sunday

Time Temperature Precipitation Wind Pressure Humidity
00:00 +18°C° 0 mm 2 mps 632 mmHg 55%
01:00 +18°C° 0 mm 2 mps 632 mmHg 58%
02:00 +17°C° 0 mm 2 mps 631 mmHg 60%
03:00 +17°C° 0 mm 2 mps 631 mmHg 63%
04:00 +17°C° 0 mm 2 mps 631 mmHg 62%
05:00 +18°C° 0 mm 2 mps 632 mmHg 60%
06:00 +19°C° 0 mm 2 mps 632 mmHg 59%
07:00 +21°C° 0.1 mm 2 mps 632 mmHg 52%
08:00 +23°C° 0.1 mm 2 mps 633 mmHg 46%
09:00 +25°C° 0.1 mm 2 mps 633 mmHg 39%
10:00 +26°C° 0 mm 2 mps 633 mmHg 36%
11:00 +27°C° 0 mm 3 mps 634 mmHg 34%
12:00 +27°C° 0 mm 3 mps 634 mmHg 31%
13:00 +28°C° 0 mm 3 mps 634 mmHg 31%
14:00 +28°C° 0 mm 3 mps 634 mmHg 31%
15:00 +28°C° 0 mm 3 mps 634 mmHg 30%
16:00 +27°C° 0 mm 2 mps 633 mmHg 36%
17:00 +26°C° 0 mm 2 mps 633 mmHg 43%
18:00 +25°C° 0 mm 1 mps 633 mmHg 49%
19:00 +24°C° 0.1 mm 2 mps 633 mmHg 51%
20:00 +21°C° 0.1 mm 2 mps 633 mmHg 53%
21:00 +19°C° 0.1 mm 2 mps 633 mmHg 55%
22:00 +19°C° 0 mm 2 mps 633 mmHg 55%
23:00 +18°C° 0 mm 2 mps 632 mmHg 54%

28 June, Monday

Time Temperature Precipitation Wind Pressure Humidity
00:00 +17°C° 0 mm 2 mps 632 mmHg 54%
01:00 +17°C° 0 mm 2 mps 632 mmHg 55%
02:00 +17°C° 0 mm 2 mps 632 mmHg 56%
03:00 +16°C° 0 mm 2 mps 631 mmHg 58%
04:00 +17°C° 0 mm 2 mps 632 mmHg 56%
05:00 +20°C° 0 mm 1 mps 632 mmHg 55%
06:00 +21°C° 0 mm 1 mps 632 mmHg 54%
07:00 +22°C° 0 mm 1 mps 633 mmHg 48%
08:00 +24°C° 0 mm 2 mps 633 mmHg 42%
09:00 +26°C° 0 mm 2 mps 633 mmHg 36%
10:00 +26°C° 0 mm 2 mps 633 mmHg 35%
11:00 +27°C° 0 mm 2 mps 633 mmHg 34%
12:00 +28°C° 0 mm 3 mps 634 mmHg 33%
13:00 +28°C° 0 mm 3 mps 633 mmHg 34%
14:00 +28°C° 0 mm 2 mps 633 mmHg 34%
15:00 +28°C° 0 mm 2 mps 633 mmHg 34%
16:00 +27°C° 0.2 mm 2 mps 633 mmHg 38%
17:00 +26°C° 0.2 mm 2 mps 633 mmHg 43%
18:00 +26°C° 0.2 mm 1 mps 632 mmHg 48%
19:00 +24°C° 0.1 mm 1 mps 632 mmHg 50%
20:00 +22°C° 0.1 mm 1 mps 632 mmHg 53%
21:00 +20°C° 0.1 mm 1 mps 632 mmHg 56%
22:00 +19°C° 0 mm 1 mps 632 mmHg 55%
23:00 +19°C° 0 mm 1 mps 631 mmHg 54%
Show more

We Need Your Consent

Meteoprog and our Service Providers may store and access personal data such as cookies, device identifiers or other similar technologies on your device and process such data to personalise content and ads, as well as provide social media features and to analyse the traffic.

  • Store and/or access information on your device

    Cookies, device identifiers or other information can be stored or accessed on your device for the purposes indicated above.

  • Personalised ads and content, ad and content measurement, audience insights, and products development

    Ads and content can be personalised based on a profile. More data can be added to better personalise ads and content. Ad and content performance can be measured. Insights about the audience who saw the ads and content can be derived. Such data can be used to develop or improve user’s experience, systems and software.

By clicking ‘I Agree’ you will allow the use of indicated cookies, device identifiers, web beacons or other similar technologies. Your settings can be changed in the browser on your device.

For certain purposes, legitimate interests may be relied on, rather than consent. You can read more about this in our Privacy and Cookie Policy.